User: anonymous   Login
Location: Eaton
(41.3139°N, 82.0207°W)
Time: 09:45:18
(UTC+00:00)
Language:

Cosmos 1461 - Orbit

View from above orbital plane
View from above orbital plane
View from above satellite
View from above satellite

Ground track
Ground track

The orbit data is extracted from the following two-line orbital elements,

1 14064U 83044A   21267.92634145  .00000800  00000-0  81266-4 0  9991
2 14064  64.9998 129.3499 0090837 156.3776 204.1553 14.95349007956520
Epoch (UTC): 24 September 2021 22:13:55
Eccentricity: 0.0090837
inclination: 64.9998°
perigee height: 518 km
apogee height: 644 km
right ascension of ascending node: 129.3499°
argument of perigee: 156.3776°
revolutions per day: 14.95349007
mean anomaly at epoch: 204.1553°
orbit number at epoch: 95652

The dashed part of the orbit path shows where the satellite is in the earth's shadow,  

DLR